User: anonymous   Login
Location: Unspecified
(0.0000°N, 0.0000°E)
Time: 15:14:52
(UTC+00:00)
Language:

Kosmos-2266 - Orbit

View from above orbital plane
View from above orbital plane
View from above satellite
View from above satellite

Ground track
Ground track

The orbit data is extracted from the following two-line orbital elements,

1 22888U 93070A   17323.93226319 +.00000044 +00000-0 +30591-4 0  9998
2 22888 082.9528 238.1411 0046862 284.8357 121.2071 13.74909392203722
Epoch (UTC): 19 November 2017 22:22:27
Eccentricity: 0.0046862
inclination: 82.9528°
perigee height: 947 km
apogee height: 1016 km
right ascension of ascending node: 238.1411°
argument of perigee: 284.8357°
revolutions per day: 13.74909392
mean anomaly at epoch: 121.2071°
orbit number at epoch: 20372

The dashed part of the orbit path shows where the satellite is in the earth's shadow,  

DLR